Tracking 20942 objects as of 9-Jul-2020
HD Live streaming from Space Station
objects crossing your sky now

FENGYUN 1C DEB

Track FENGYUN 1C DEB now!
10-day predictions


NORAD ID: 32363
Int'l Code: 1999-025CZG
Perigee: 495.0 km
Apogee: 810.7 km
Inclination: 98.4 °
Period: 97.6 minutes
Semi major axis: 7023 km
RCS: 0.013 m2 (small)
Launch date: May 10, 1999
Source: People's Republic of China (PRC)
Launch site: Taiyaun Space Center, China (TSC)

Note: This is SATELLITE DEBRIS
aabbcc
Your satellite tracking list
Your tracking list is empty




NASA's NSSDC Master Catalog

Two Line Element Set (TLE):
1 32363U 99025CZG 20191.27984695  .00000621  00000-0  68708-4 0  9997
2 32363  98.4442 357.7279 0224736 120.8587 241.4938 14.74816876682150
Source of the keplerian elements: AFSPC